Tracking 29892 objects as of 21-Nov-2024
HD Live streaming from Space Station
objects crossing your sky now

CZ-6A DEB

Track CZ-6A DEB now!
10-day predictions


NORAD ID: 55001
Int'l Code: 2022-151UR
Perigee: 834.5 km
Apogee: 898.5 km
Inclination: 98.8 °
Period: 102.1 minutes
Semi major axis: 7237 km
RCS: Unknown
Launch date: November 11, 2022
Source: People's Republic of China (PRC)
Launch site: Taiyaun Space Center, China (TSC)

Note: This is SATELLITE DEBRIS
Your satellite tracking list
Your tracking list is empty




NASA's NSSDC Master Catalog

Two Line Element Set (TLE):
1 55001U 22151UR  24325.48863248  .00000404  00000-0  25141-3 0  9995
2 55001  98.8174 324.8365 0044219 160.2556 200.0339 14.09998191102939
Source of the keplerian elements: AFSPC